Flag for Canada Weather past 2 weeks in Dawson Creek, British Columbia, Canada

Now
59 °F

Refreshingly cool.


Feels Like: 57 °F
Forecast: 37 / 68 °F
Wind: 9 mph from Southwest

Location: Dawson Creek Airport

Current Time: Aug 27, 2014 at 10:52:18 PM

Latest Report: Aug 27, 2014 at 10:00 PM


Visibility: 9 mi

Pressure: 29.92 "Hg

Humidity: 42%

Dew point: 36 °F

Location of Dawson CreekLocation

Historic Weather in Dawson Creek — Graph

°F

Dawson Creek temperature yesterday

Maximum temperature yesterday: 75 °F (at 3:00 PM)
Minimum temperature yesterday: 63 °F (at 4:00 AM)
Average temperature yesterday: 68 °F

Past Weeks' High & Low Weather Summary

 TemperatureHumidityPressure
High86 °F (Aug 13, 4:00 PM)100% (Aug 21, 4:00 AM)30.41 "Hg (Aug 21, 4:00 AM)
Low32 °F (Aug 23, 3:00 AM)18% (Aug 17, 4:00 PM)29.68 "Hg (Aug 18, 8:00 PM)
Average61 °F60%29.98 "Hg
* Reported Aug 12 9:00 PM — Aug 27 9:00 PM, Dawson Creek, Weather by CustomWeather, © 2014

Note: Actual official high and low records may vary slightly from our data, if they occured in-between our weather recording intervals... More about our weather records

Advertising

Dawson Creek weather history for previous 24 hours

 ConditionsComfort  
Time TempWeatherWind HumidityBarometerVisibility
9:00 PM
Aug 27
59 °FRefreshingly cool.10 mph42%29.92 "Hg9 mi
8:00 PM61 °FRefreshingly cool.6 mph36%29.91 "Hg9 mi
7:00 PM64 °FMild.10 mph30%29.90 "Hg9 mi
6:00 PM68 °FMild.20 mph26%29.90 "Hg9 mi
5:00 PM68 °FMild.17 mph26%29.89 "Hg9 mi
4:00 PM72 °FMild.18 mph23%29.89 "Hg9 mi
3:00 PM70 °FMild.21 mph27%29.88 "Hg9 mi
2:00 PM70 °FMild.21 mph27%29.88 "Hg9 mi
1:00 PM68 °FMild.18 mph30%29.88 "Hg9 mi
12:00 PM66 °FMild.17 mph32%29.89 "Hg9 mi
11:00 AM66 °FMild.16 mph35%29.90 "Hg9 mi
10:00 AM64 °FMild.20 mph40%29.90 "Hg9 mi
9:00 AM61 °FRefreshingly cool.18 mph48%29.90 "Hg9 mi
8:00 AM61 °FRefreshingly cool.16 mph48%29.90 "Hg9 mi
7:47 AM61 °FRefreshingly cool.14 mph48%29.89 "Hg9 mi
7:00 AM55 °FCool.2 mph63%29.89 "Hg9 mi
6:00 AM52 °FCool.3 mph77%29.88 "Hg9 mi
5:00 AM54 °FCool.3 mph72%29.87 "Hg9 mi
4:00 AM55 °FCool.5 mph67%29.85 "Hg9 mi
3:00 AM61 °FRefreshingly cool.7 mph55%29.84 "Hg9 mi
2:00 AM63 °FMild.14 mph52%29.83 "Hg9 mi
1:00 AM63 °FMild.15 mph52%29.83 "Hg9 mi
12:00 AM63 °FMild.16 mph56%29.83 "Hg9 mi
11:00 PM
Aug 26
63 °FMild.13 mph59%29.82 "Hg9 mi
10:00 PM64 °FMild.13 mph60%29.81 "Hg9 mi
Weather by CustomWeather, © 2014

See weather overviewHow to use our weather pages